TimeCST,TemperatureF,Dew PointF,Humidity,Sea Level PressureIn,VisibilityMPH,Wind Direction,Wind SpeedMPH,Gust SpeedMPH,PrecipitationIn,Events,Conditions,WindDirDegrees,DateUTC
12:15 AM,1.4,-5.8,72,29.94,10.0,NW,5.8,-,N/A,,Clear,310,2014-02-15 06:15:00
12:35 AM,1.4,-7.6,66,29.95,10.0,WNW,4.6,-,N/A,,Clear,290,2014-02-15 06:35:00
12:55 AM,-0.4,-7.6,72,29.95,10.0,WNW,5.8,-,N/A,,Clear,300,2014-02-15 06:55:00
1:15 AM,-0.4,-7.6,72,29.95,10.0,WNW,6.9,-,N/A,,Clear,300,2014-02-15 07:15:00
1:35 AM,-0.4,-5.8,78,29.96,10.0,WNW,6.9,-,N/A,,Clear,290,2014-02-15 07:35:00
1:55 AM,-0.4,-7.6,72,29.96,10.0,WNW,5.8,-,N/A,,Clear,290,2014-02-15 07:55:00
2:15 AM,-0.4,-7.6,72,29.97,10.0,WNW,6.9,-,N/A,,Clear,300,2014-02-15 08:15:00
2:35 AM,-0.4,-7.6,72,29.96,10.0,NW,8.1,-,N/A,,Clear,310,2014-02-15 08:35:00
2:55 AM,-0.4,-7.6,72,29.97,10.0,WNW,5.8,-,N/A,,Clear,300,2014-02-15 08:55:00
3:15 AM,-0.4,-7.6,72,29.97,10.0,WNW,5.8,-,N/A,,Clear,300,2014-02-15 09:15:00
3:35 AM,-0.4,-9.4,66,29.98,10.0,WNW,6.9,-,N/A,,Clear,290,2014-02-15 09:35:00
3:55 AM,-2.2,-7.6,78,29.99,10.0,NW,4.6,-,N/A,,Clear,310,2014-02-15 09:55:00
4:15 AM,-2.2,-7.6,78,29.99,10.0,WNW,8.1,-,N/A,,Clear,300,2014-02-15 10:15:00
4:35 AM,-0.4,-7.6,72,29.99,10.0,WNW,6.9,-,N/A,,Clear,300,2014-02-15 10:35:00
4:55 AM,-2.2,-7.6,78,29.99,10.0,NW,5.8,-,N/A,,Clear,310,2014-02-15 10:55:00
5:15 AM,-2.2,-7.6,78,30.00,10.0,NW,6.9,-,N/A,,Clear,320,2014-02-15 11:15:00
5:35 AM,-2.2,-7.6,78,30.00,10.0,NW,4.6,-,N/A,,Clear,320,2014-02-15 11:35:00
5:55 AM,-4.0,-9.4,78,30.00,10.0,Calm,Calm,-,N/A,,Clear,0,2014-02-15 11:55:00
6:15 AM,-2.2,-7.6,78,30.00,10.0,NNW,4.6,-,N/A,,Clear,330,2014-02-15 12:15:00
6:35 AM,-2.2,-7.6,78,30.00,10.0,NNW,3.5,-,N/A,,Clear,330,2014-02-15 12:35:00
6:55 AM,-4.0,-7.6,85,30.01,10.0,Calm,Calm,-,N/A,,Clear,0,2014-02-15 12:55:00
7:15 AM,-5.8,-9.4,84,30.01,10.0,Calm,Calm,-,N/A,,Clear,0,2014-02-15 13:15:00
7:35 AM,-4.0,-7.6,85,30.00,10.0,Calm,Calm,-,N/A,,Clear,0,2014-02-15 13:35:00
7:55 AM,-2.2,-7.6,78,30.00,10.0,West,3.5,-,N/A,,Clear,270,2014-02-15 13:55:00
8:15 AM,-0.4,-4.0,85,30.01,10.0,NNW,4.6,-,N/A,,Clear,330,2014-02-15 14:15:00
8:35 AM,1.4,-5.8,72,30.02,10.0,NNW,4.6,-,N/A,,Clear,330,2014-02-15 14:35:00
8:55 AM,1.4,-5.8,72,30.03,10.0,NNW,5.8,-,N/A,,Scattered Clouds,330,2014-02-15 14:55:00
9:15 AM,1.4,-2.2,85,30.03,10.0,NW,4.6,-,N/A,,Overcast,320,2014-02-15 15:15:00
9:35 AM,3.2,-2.2,78,30.03,10.0,NW,4.6,-,N/A,,Overcast,320,2014-02-15 15:35:00
9:55 AM,3.2,-2.2,78,30.03,10.0,WNW,3.5,-,N/A,,Overcast,300,2014-02-15 15:55:00
10:15 AM,5.0,-2.2,72,30.03,10.0,West,3.5,-,N/A,,Overcast,260,2014-02-15 16:15:00
10:35 AM,5.0,-2.2,72,30.04,10.0,Calm,Calm,-,N/A,,Overcast,0,2014-02-15 16:35:00
10:55 AM,6.8,-0.4,72,30.04,10.0,Calm,Calm,-,N/A,,Overcast,0,2014-02-15 16:55:00
11:15 AM,6.8,-0.4,72,30.03,10.0,Calm,Calm,-,N/A,,Scattered Clouds,0,2014-02-15 17:15:00
11:35 AM,8.6,1.4,73,30.03,10.0,Calm,Calm,-,N/A,,Clear,0,2014-02-15 17:35:00
11:55 AM,10.4,1.4,67,30.02,10.0,Calm,Calm,-,N/A,,Clear,0,2014-02-15 17:55:00
12:15 PM,12.2,3.2,67,30.01,10.0,Calm,Calm,-,N/A,,Partly Cloudy,0,2014-02-15 18:15:00
12:35 PM,10.4,-0.4,62,30.00,10.0,Calm,Calm,-,N/A,,Clear,0,2014-02-15 18:35:00
12:55 PM,12.2,3.2,67,29.99,10.0,Calm,Calm,-,N/A,,Clear,0,2014-02-15 18:55:00
1:15 PM,12.2,-0.4,57,29.99,10.0,Calm,Calm,-,N/A,,Clear,0,2014-02-15 19:15:00
1:35 PM,12.2,1.4,62,29.99,10.0,West,4.6,-,N/A,,Clear,260,2014-02-15 19:35:00
1:55 PM,12.2,1.4,62,29.98,10.0,NNW,3.5,-,N/A,,Clear,330,2014-02-15 19:55:00
2:15 PM,12.2,3.2,67,29.98,10.0,Calm,Calm,-,N/A,,Scattered Clouds,0,2014-02-15 20:15:00
2:35 PM,14.0,3.2,62,29.98,10.0,Calm,Calm,-,N/A,,Overcast,0,2014-02-15 20:35:00
2:55 PM,12.2,1.4,62,29.98,10.0,NNW,3.5,-,N/A,,Mostly Cloudy,340,2014-02-15 20:55:00
3:15 PM,12.2,3.2,67,29.98,10.0,ENE,3.5,-,N/A,,Overcast,60,2014-02-15 21:15:00
3:35 PM,12.2,3.2,67,29.97,10.0,ESE,4.6,-,N/A,,Overcast,110,2014-02-15 21:35:00
3:55 PM,14.0,6.8,73,29.97,10.0,ESE,4.6,-,N/A,,Overcast,120,2014-02-15 21:55:00
4:15 PM,15.8,6.8,68,29.97,10.0,South,8.1,-,N/A,,Overcast,170,2014-02-15 22:15:00
4:35 PM,15.8,6.8,68,29.97,10.0,SE,5.8,-,N/A,,Overcast,140,2014-02-15 22:35:00
4:55 PM,15.8,8.6,73,29.97,10.0,SSE,6.9,-,N/A,,Overcast,150,2014-02-15 22:55:00
5:15 PM,15.8,8.6,73,29.97,10.0,SSE,4.6,-,N/A,,Overcast,150,2014-02-15 23:15:00
5:35 PM,15.8,8.6,73,29.97,10.0,SSE,3.5,-,N/A,,Overcast,150,2014-02-15 23:35:00
5:55 PM,15.8,10.4,79,29.98,10.0,Calm,Calm,-,N/A,,Overcast,0,2014-02-15 23:55:00
6:15 PM,15.8,10.4,79,29.98,10.0,Calm,Calm,-,N/A,,Overcast,0,2014-02-16 00:15:00
6:35 PM,15.8,8.6,73,29.99,10.0,Calm,Calm,-,N/A,,Overcast,0,2014-02-16 00:35:00
6:55 PM,15.8,10.4,79,29.98,10.0,Calm,Calm,-,N/A,,Overcast,0,2014-02-16 00:55:00
7:15 PM,15.8,10.4,79,29.98,10.0,Calm,Calm,-,N/A,,Overcast,0,2014-02-16 01:15:00
7:35 PM,15.8,10.4,79,29.98,10.0,Calm,Calm,-,N/A,,Overcast,0,2014-02-16 01:35:00
7:55 PM,15.8,10.4,79,29.97,10.0,ENE,4.6,-,N/A,,Overcast,60,2014-02-16 01:55:00
8:15 PM,15.8,10.4,79,29.97,7.0,NE,4.6,-,N/A,,Overcast,50,2014-02-16 02:15:00
8:35 PM,15.8,10.4,79,29.96,2.5,ENE,4.6,-,N/A,,Overcast,70,2014-02-16 02:35:00
8:55 PM,15.8,12.2,86,29.96,1.5,Calm,Calm,-,N/A,,Overcast,0,2014-02-16 02:55:00
9:15 PM,15.8,12.2,86,29.97,1.5,Calm,Calm,-,N/A,,Overcast,0,2014-02-16 03:15:00
9:35 PM,15.8,12.2,86,29.96,1.2,Calm,Calm,-,N/A,,Overcast,0,2014-02-16 03:35:00
9:55 PM,15.8,12.2,86,29.95,1.5,WNW,3.5,-,N/A,,Overcast,290,2014-02-16 03:55:00
10:15 PM,15.8,12.2,86,29.95,1.2,Calm,Calm,-,N/A,,Overcast,0,2014-02-16 04:15:00
10:35 PM,15.8,12.2,86,29.94,1.8,Calm,Calm,-,N/A,,Overcast,0,2014-02-16 04:35:00
10:55 PM,15.8,12.2,86,29.93,1.8,Calm,Calm,-,N/A,,Overcast,0,2014-02-16 04:55:00
11:15 PM,15.8,12.2,86,29.92,2.0,Calm,Calm,-,N/A,,Overcast,0,2014-02-16 05:15:00
11:35 PM,15.8,12.2,86,29.92,2.5,Calm,Calm,-,N/A,,Overcast,0,2014-02-16 05:35:00
11:55 PM,15.8,12.2,86,29.92,3.0,Calm,Calm,-,N/A,,Overcast,0,2014-02-16 05:55:00